Waarnemingen

Advertentie
Mijn weer
Catania/Fontanarossa, Italië (16460): temperatuur & dauwpunt: 11.10.2018 23:00:00 - 17.10.2018 23:00:00 (CEST)Catania/Fontanarossa, Italië (16460): windsnelheid: 11.10.2018 23:00:00 - 17.10.2018 23:00:00 (CEST)Catania/Fontanarossa, Italië (16460): windrichting: 11.10.2018 23:00:00 - 17.10.2018 23:00:00 (CEST)Catania/Fontanarossa, Italië (16460): luchtdruk: 11.10.2018 23:00:00 - 17.10.2018 23:00:00 (CEST)Catania/Fontanarossa, Italië (16460): zicht: 11.10.2018 23:00:00 - 17.10.2018 23:00:00 (CEST)Catania/Fontanarossa, Italië (16460): neerslag: 11.10.2018 23:00:00 - 17.10.2018 23:00:00 (CEST)
Datum & Tijd tt [°C] td [°C] ff [km/u] ff [kn] dd ppp [hPa] vv [km] rr [mm]
17.10.2018 23:00:00 22,0 19,0 26 14 O - 10 -
17.10.2018 22:00:00 23,0 19,0 18 10 O - 10 -
17.10.2018 21:00:00 23,0 19,0 21 11 O - 10 -
17.10.2018 20:00:00 22,4 18,6 18 10 O 1014,3 10 -
17.10.2018 19:00:00 23,0 19,0 22 12 O - 10 -
17.10.2018 18:00:00 23,0 19,0 22 12 O - 10 -
17.10.2018 17:00:00 23,3 18,7 22 12 O 1013,9 10 0,0
17.10.2018 16:00:00 24,0 19,0 22 12 O - 10 -
17.10.2018 15:00:00 24,0 20,0 21 11 O - 10 -
17.10.2018 14:00:00 24,5 19,4 21 11 O 1015,2 10 -
17.10.2018 13:00:00 25,0 19,0 21 11 OZO - 10 -
17.10.2018 12:00:00 24,0 19,0 18 10 O - 10 -
17.10.2018 11:00:00 24,1 20,0 15 8 O 1016,3 8 0,0
17.10.2018 10:00:00 20,0 19,0 4 2 - - 8 -
17.10.2018 09:00:00 18,0 17,0 8 4 W - 4,0 -
17.10.2018 08:00:00 17,7 16,9 8 4 WZW 1016,1 5 -
17.10.2018 07:00:00 17,0 16,0 5 3 WZW - 6 -
17.10.2018 06:00:00 17,0 17,0 4 2 - - 4,0 -
17.10.2018 05:00:00 16,5 15,7 5 3 ZW 1016,2 5 0,0
17.10.2018 04:00:00 - - - - - - - -
17.10.2018 03:00:00 18,0 17,0 4 2 WZW - 10 -
17.10.2018 02:00:00 19,6 17,2 8 4 N 1017,2 10 -
17.10.2018 01:00:00 20,0 18,0 8 4 NNO - 10 -
17.10.2018 00:00:00 - - - - - - - -
16.10.2018 23:00:00 21,0 18,5 8 4 NO 1018,2 10 0,0
16.10.2018 22:00:00 22,0 19,0 11 6 NO - 10 -
16.10.2018 21:00:00 22,0 19,0 13 7 O - 10 -
16.10.2018 20:00:00 21,7 18,7 11 6 O 1017,8 10 -
16.10.2018 19:00:00 22,0 18,0 9 5 O - 10 -
16.10.2018 18:00:00 23,0 18,0 13 7 O - 10 -
16.10.2018 17:00:00 23,1 17,9 11 6 O 1016,9 10 0,0
16.10.2018 16:00:00 24,0 19,0 11 6 O - 10 -
16.10.2018 15:00:00 24,0 18,0 9 5 OZO - 10 -
16.10.2018 14:00:00 24,5 18,0 8 4 OZO 1017,2 10 -
16.10.2018 13:00:00 24,0 19,0 9 5 O - 10 -
16.10.2018 12:00:00 24,0 18,0 5 3 OZO - 10 -
16.10.2018 11:00:00 22,2 17,2 5 3 WZW 1017,8 10 0,0
16.10.2018 10:00:00 20,0 17,0 11 6 WZW - 10 -
16.10.2018 09:00:00 19,0 17,0 8 4 ZW - 10 -
16.10.2018 08:00:00 16,8 16,8 9 5 WZW 1016,8 10 -
16.10.2018 07:00:00 16,0 16,0 8 4 ZW - 10 -
16.10.2018 06:00:00 16,0 16,0 8 4 ZW - 10 -
16.10.2018 05:00:00 16,7 16,1 9 5 WZW 1016,3 10 0,0
16.10.2018 04:00:00 17,0 16,0 5 3 W - 10 -
16.10.2018 03:00:00 18,0 17,0 11 6 W - 10 -
16.10.2018 02:00:00 18,2 17,2 8 4 W 1016,7 10 -
16.10.2018 01:00:00 20,0 18,0 2 1 - - 10 -
16.10.2018 00:00:00 20,0 18,0 5 3 WZW - 10 -
15.10.2018 23:00:00 20,2 17,9 4 2 - 1016,6 10 0,0
15.10.2018 22:00:00 - - - - - - - -
15.10.2018 21:00:00 21,0 18,0 11 6 N - 10 -
15.10.2018 20:00:00 20,6 18,3 13 7 NNO 1015,2 10 -
15.10.2018 19:00:00 21,0 19,0 11 6 NNO - 10 -
15.10.2018 18:00:00 21,0 19,0 5 3 NNO - 10 -
15.10.2018 17:00:00 22,1 17,9 9 5 ONO 1014,0 10 0,0
15.10.2018 16:00:00 23,0 18,0 13 7 O - 10 -
15.10.2018 15:00:00 22,0 18,0 9 5 ONO - 10 -
15.10.2018 14:00:00 22,2 18,6 8 4 ONO 1013,6 10 -
15.10.2018 13:00:00 21,0 19,0 5 3 Z - 8 -
15.10.2018 12:00:00 19,0 17,0 9 5 OZO - 5 -
15.10.2018 11:00:00 22,1 17,5 16 9 ZO 1013,5 8 0,0
15.10.2018 10:00:00 21,0 18,0 2 1 - - 7 -
15.10.2018 09:00:00 20,0 19,0 5 3 O - 4,0 -
15.10.2018 08:00:00 17,8 17,8 4 2 - 1011,8 5 -
15.10.2018 07:00:00 18,0 17,0 5 3 WNW - 5 -
15.10.2018 06:00:00 19,0 17,0 5 3 WZW - 10 -
15.10.2018 05:00:00 21,1 18,1 5 3 ZO 1010,7 10 0,0
15.10.2018 04:00:00 22,0 18,0 9 5 O - 10 -
15.10.2018 03:00:00 21,0 19,0 22 12 O - 7 -
15.10.2018 02:00:00 20,3 18,9 21 11 OZO 1011,4 6 -
15.10.2018 01:00:00 20,0 19,0 24 13 ZO - 8 -
15.10.2018 00:00:00 20,0 16,0 18 10 ONO - 10 -
14.10.2018 23:00:00 20,4 18,0 21 11 NO 1012,5 10 0,0
14.10.2018 22:00:00 19,0 18,0 18 10 NNO - 5 -
14.10.2018 21:00:00 19,0 17,0 13 7 NO - 8 -
14.10.2018 20:00:00 19,0 17,1 16 9 NNO 1012,7 7 -
14.10.2018 19:00:00 20,0 18,0 13 7 ONO - 10 -
14.10.2018 18:00:00 20,0 18,0 13 7 NO - 10 -
14.10.2018 17:00:00 19,7 17,4 15 8 ONO 1013,3 10 0,0
14.10.2018 16:00:00 21,0 19,0 21 11 ONO - 10 -
14.10.2018 15:00:00 19,0 18,0 21 11 O - 7 -
14.10.2018 14:00:00 20,6 16,7 16 9 NO 1014,3 8 -
14.10.2018 13:00:00 21,0 16,0 24 13 NO - 7 -
14.10.2018 12:00:00 21,0 16,0 21 11 NO - 10 -
14.10.2018 11:00:00 19,5 16,5 21 11 NNO 1016,3 8 0,0
14.10.2018 10:00:00 20,0 17,0 26 14 NO - 3,0 -
14.10.2018 09:00:00 19,0 17,0 21 11 NO - 7 -
14.10.2018 08:00:00 18,4 17,2 13 7 NNO 1016,7 6 -
14.10.2018 07:00:00 19,0 16,0 26 14 NO - 5 -
14.10.2018 06:00:00 19,0 15,0 18 10 NO - 10 -
14.10.2018 05:00:00 19,1 15,7 15 8 NO 1017,3 10 0,0
14.10.2018 04:00:00 20,0 16,0 18 10 O - 10 -
14.10.2018 03:00:00 21,0 17,0 22 12 O - 10 -
14.10.2018 02:00:00 20,8 17,9 24 13 O 1018,3 10 -
14.10.2018 01:00:00 21,0 16,0 16 9 NO - 10 -
14.10.2018 00:00:00 20,0 15,0 16 9 NNO - 10 -
13.10.2018 23:00:00 20,1 15,6 15 8 NO 1019,3 10 0,0
13.10.2018 22:00:00 20,0 16,0 15 8 ONO - 10 -
13.10.2018 21:00:00 20,0 15,0 22 12 O - 10 -
13.10.2018 20:00:00 20,3 14,4 11 6 NO 1019,8 10 -
13.10.2018 19:00:00 - - - - - - - -
13.10.2018 18:00:00 20,0 15,0 29 16 ONO - 8 -
13.10.2018 17:00:00 20,9 15,6 21 11 NO 1019,0 10 0,0
13.10.2018 16:00:00 21,0 16,0 24 13 NO - 10 -
13.10.2018 15:00:00 21,0 17,0 18 10 NO - 10 -
13.10.2018 14:00:00 20,9 16,3 18 10 ONO 1020,2 10 -
13.10.2018 13:00:00 20,0 17,0 9 5 NNO - 10 -
13.10.2018 12:00:00 18,0 17,0 5 3 NNO - 6 -
13.10.2018 11:00:00 18,9 16,2 5 3 W 1021,4 10 0,0
13.10.2018 10:00:00 18,0 16,0 2 1 - - 7 -
13.10.2018 09:00:00 19,0 16,0 8 4 N - 10 -
13.10.2018 08:00:00 17,7 15,6 13 7 NO 1020,6 10 -
13.10.2018 07:00:00 18,0 15,0 13 7 O - 8 -
13.10.2018 06:00:00 18,0 16,0 2 1 - - 10 -
13.10.2018 05:00:00 18,4 15,5 4 2 - 1020,7 10 0,0
13.10.2018 04:00:00 19,0 15,0 8 4 NNO - 10 -
13.10.2018 03:00:00 19,0 16,0 16 9 NNO - 10 -
13.10.2018 02:00:00 19,0 16,4 11 6 ONO 1021,8 10 -
13.10.2018 01:00:00 19,0 18,0 9 5 N - 10 -
13.10.2018 00:00:00 19,0 18,0 15 8 ONO - 7 -
12.10.2018 23:00:00 19,1 18,0 5 3 OZO 1022,2 8 0,0
12.10.2018 22:00:00 19,0 18,0 8 4 Z - 10 -
12.10.2018 21:00:00 19,0 17,0 8 4 NNO - 10 -
12.10.2018 20:00:00 18,8 17,4 9 5 NO 1021,7 8 -
12.10.2018 19:00:00 19,0 18,0 9 5 ONO - 6 -
12.10.2018 18:00:00 20,0 18,0 9 5 ONO - 4,0 -
12.10.2018 17:00:00 20,1 17,8 21 11 NO 1021,4 8 0,0
12.10.2018 16:00:00 21,0 17,0 21 11 NO - 8 -
12.10.2018 15:00:00 21,0 18,0 21 11 NO - 8 -
12.10.2018 14:00:00 23,2 17,4 21 11 O 1020,5 10 -
12.10.2018 13:00:00 26,0 17,0 5 3 Z - 10 -
12.10.2018 12:00:00 25,0 18,0 8 4 - - 10 -
12.10.2018 11:00:00 24,0 18,1 9 5 ZW 1021,6 10 0,0
12.10.2018 10:00:00 22,0 18,0 13 7 W - 10 -
12.10.2018 09:00:00 21,0 19,0 5 3 W - 10 -
12.10.2018 08:00:00 18,6 17,8 8 4 WZW 1020,7 10 -
12.10.2018 07:00:00 18,0 18,0 9 5 WZW - 8 -
12.10.2018 06:00:00 19,0 18,0 8 4 WZW - 10 -
12.10.2018 05:00:00 18,9 18,0 8 4 W 1020,4 10 0,0
12.10.2018 04:00:00 18,0 18,0 9 5 ZW - 10 -
12.10.2018 03:00:00 - - - - - - - -
12.10.2018 02:00:00 18,6 17,7 8 4 W 1020,5 10 -
12.10.2018 01:00:00 20,0 18,0 8 4 ZW - 10 -
12.10.2018 00:00:00 - - - - - - - -
11.10.2018 23:00:00 21,8 18,4 4 2 - 1020,4 10 0,0

tt = temperatuur
td = dauwpunt
ff = windsnelheid
dd = windrichting
ppp = luchtdruk
vv = zicht
rr = neerslag

Weerstations in de omgeving